H1 CPF 2 NER 2025 8 17 9 229 01 glonass146 H2 2216101 9146 54377 2025 8 17 0 0 0 2025 8 20 23 45 0 900 1 1 0 0 0 1 H9 10 0 60904 0.00000 0 -61243.294 16684707.584 -19263980.369 10 0 60904 900.00000 0 -1412822.653 14604718.074 -20839115.728 10 0 60904 1800.00000 0 -3018157.683 12497170.749 -22008508.827 10 0 60904 2700.00000 0 -4852303.398 10425867.242 -22749506.917 10 0 60904 3600.00000 0 -6878776.868 8450006.324 -23047820.569 10 0 60904 4500.00000 0 -9050875.856 6621851.028 -22897792.306 10 0 60904 5400.00000 0 -11313437.392 4984706.123 -22302495.516 10 0 60904 6300.00000 0 -13604962.664 3571289.380 -21273662.643 10 0 60904 7200.00000 0 -15860019.418 2402563.213 -19831444.930 10 0 60904 8100.00000 0 -18011821.543 1487073.647 -18004009.222 10 0 60904 9000.00000 0 -19994878.421 820822.126 -15826980.332 10 0 60904 9900.00000 0 -21747603.739 387673.283 -13342740.368 10 0 60904 10800.00000 0 -23214775.443 160279.375 -10599599.056 10 0 60904 11700.00000 0 -24349744.828 101480.514 -7650851.444 10 0 60904 12600.00000 0 -25116303.318 166120.084 -4553741.511 10 0 60904 13500.00000 0 -25490129.933 303197.537 -1368351.886 10 0 60904 14400.00000 0 -25459759.926 458266.868 1843558.810 10 0 60904 15300.00000 0 -25027035.104 575979.033 5019748.536 10 0 60904 16200.00000 0 -24207017.902 602660.829 8098691.442 10 0 60904 17100.00000 0 -23027373.506 488821.475 11020761.721 10 0 60904 18000.00000 0 -21527246.335 191481.360 13729379.280 10 0 60904 18900.00000 0 -19755677.963 -323774.988 16172095.789 10 0 60904 19800.00000 0 -17769632.337 -1081108.033 18301600.954 10 0 60904 20700.00000 0 -15631710.129 -2093165.766 20076630.420 10 0 60904 21600.00000 0 -13407646.686 -3360312.929 21462758.682 10 0 60904 22500.00000 0 -11163696.642 -4870380.227 22433062.443 10 0 60904 23400.00000 0 -8964012.902 -6598945.363 22968642.233 10 0 60904 24300.00000 0 -6868127.773 -8510135.941 23058992.450 10 0 60904 25200.00000 0 -4928639.842 -10557922.786 22702212.682 10 0 60904 26100.00000 0 -3189201.952 -12687851.896 21905055.712 10 0 60904 27000.00000 0 -1682893.278 -14839145.033 20682810.487 10 0 60904 27900.00000 0 -431042.981 -16947083.359 19059021.127 10 0 60904 28800.00000 0 557445.609 -18945576.284 17065046.048 10 0 60904 29700.00000 0 1286241.909 -20769809.471 14739464.244 10 0 60904 30600.00000 0 1771199.733 -22358861.903 12127338.820 10 0 60904 31500.00000 0 2039449.711 -23658182.472 9279350.850 10 0 60904 32400.00000 0 2128010.525 -24621821.779 6250819.504 10 0 60904 33300.00000 0 2081977.591 -25214324.497 3100627.017 10 0 60904 34200.00000 0 1952366.081 -25412201.512 -109930.504 10 0 60904 35100.00000 0 1793700.271 -25204918.527 -3318343.601 10 0 60904 36000.00000 0 1661452.455 -24595358.249 -6462116.985 10 0 60904 36900.00000 0 1609441.350 -23599735.575 -9479998.911 10 0 60904 37800.00000 0 1687301.991 -22246968.719 -12313187.057 10 0 60904 38700.00000 0 1938136.080 -20577532.423 -14906486.035 10 0 60904 39600.00000 0 2396444.072 -18641841.680 -17209392.674 10 0 60904 40500.00000 0 3086428.118 -16498234.414 -19177086.974 10 0 60904 41400.00000 0 4020738.921 -14210638.514 -20771308.796 10 0 60904 42300.00000 0 5199720.445 -11846021.901 -21961102.933 10 0 60904 43200.00000 0 6611185.020 -9471733.132 -22723418.203 10 0 60904 44100.00000 0 8230728.687 -7152844.234 -23043549.376 10 0 60904 45000.00000 0 10022573.702 -4949606.956 -22915414.006 10 0 60904 45900.00000 0 11940902.764 -2915128.262 -22341659.681 10 0 60904 46800.00000 0 13931628.940 -1093361.236 -21333600.493 10 0 60904 47700.00000 0 15934526.983 482506.091 -19910984.888 10 0 60904 48600.00000 0 17885636.741 1791198.487 -18101600.208 10 0 60904 49500.00000 0 19719838.143 2823992.029 -15940722.318 10 0 60904 50400.00000 0 21373490.170 3584818.930 -13470421.561 10 0 60904 51300.00000 0 22787023.780 4089836.682 -10738738.987 10 0 60904 52200.00000 0 23907380.794 4366481.855 -7798749.136 10 0 60904 53100.00000 0 24690197.302 4452050.333 -4707527.800 10 0 60904 54000.00000 0 25101640.980 4391865.423 -1525044.894 10 0 60904 54900.00000 0 25119826.182 4237112.287 1686996.091 10 0 60904 55800.00000 0 24735748.394 4042430.867 4866349.655 10 0 60904 56700.00000 0 23953699.622 3863369.270 7951428.015 10 0 60904 57600.00000 0 22791147.898 3753805.168 10882486.198 10 0 60904 58500.00000 0 21278086.279 3763443.807 13602770.032 10 0 60904 59400.00000 0 19455878.546 3935497.862 16059605.583 10 0 60904 60300.00000 0 17375649.512 4304646.547 18205409.776 10 0 60904 61200.00000 0 15096286.441 4895359.793 19998603.535 10 0 60904 62100.00000 0 12682133.914 5720658.046 21404410.688 10 0 60904 63000.00000 0 10200476.856 6781360.287 22395528.017 10 0 60904 63900.00000 0 7718915.081 8065852.749 22952654.056 10 0 60904 64800.00000 0 5302737.044 9550389.401 23064866.766 10 0 60904 65700.00000 0 3012400.539 11199913.375 22729842.741 10 0 60904 66600.00000 0 901223.870 12969367.018 21953913.258 10 0 60904 67500.00000 0 -986617.488 14805437.926 20751955.315 10 0 60904 68400.00000 0 -2617706.033 16648670.063 19147118.575 10 0 60904 69300.00000 0 -3970542.213 18435853.501 17170392.169 10 0 60904 70200.00000 0 -5036200.899 20102594.197 14860018.248 10 0 60904 71100.00000 0 -5818456.826 21585957.073 12260762.215 10 0 60904 72000.00000 0 -6333373.506 22827071.864 9423052.584 10 0 60904 72900.00000 0 -6608372.775 23773591.993 6402006.253 10 0 60904 73800.00000 0 -6680824.152 24381902.338 3256357.651 10 0 60904 74700.00000 0 -6596213.784 24618981.690 47312.647 10 0 60904 75600.00000 0 -6405970.990 24463840.013 -3162650.032 10 0 60904 76500.00000 0 -6165045.307 23908468.408 -6311005.585 10 0 60904 77400.00000 0 -5929337.977 22958260.308 -9336413.032 10 0 60904 78300.00000 0 -5753098.208 21631885.064 -12179922.831 10 0 60904 79200.00000 0 -5686396.260 19960618.453 -14786137.348 10 0 60904 80100.00000 0 -5772782.043 17987157.993 -17104300.223 10 0 60904 81000.00000 0 -6047229.921 15763972.920 -19089292.459 10 0 60904 81900.00000 0 -6534457.968 13351258.461 -20702515.163 10 0 60904 82800.00000 0 -7247693.671 10814580.751 -21912641.432 10 0 60904 83700.00000 0 -8187938.851 8222311.593 -22696222.891 10 0 60904 84600.00000 0 -9343765.105 5642960.728 -23038139.501 10 0 60904 85500.00000 0 -10691648.396 3142517.265 -22931884.553 10 0 60905 0.00000 0 -12196828.446 781911.196 -22379680.280 10 0 60905 900.00000 0 -13814657.347 -1385301.072 -21392422.335 10 0 60905 1800.00000 0 -15492378.416 -3314928.627 -19989456.010 10 0 60905 2700.00000 0 -17171263.046 -4973738.137 -18198188.358 10 0 60905 3600.00000 0 -18789013.820 -6340578.457 -16053545.120 10 0 60905 4500.00000 0 -20282333.829 -7406994.287 -13597283.374 10 0 60905 5400.00000 0 -21589554.493 -8177305.370 -10877173.711 10 0 60905 6300.00000 0 -22653212.010 -8668150.322 -7946068.155 10 0 60905 7200.00000 0 -23422464.819 -8907516.427 -4860872.109 10 0 60905 8100.00000 0 -23855251.266 -8933298.145 -1681440.438 10 0 60905 9000.00000 0 -23920097.615 -8791446.570 1530580.989 10 0 60905 9900.00000 0 -23597501.212 -8533788.931 4712945.821 10 0 60905 10800.00000 0 -22880831.416 -8215610.771 7804007.075 10 0 60905 11700.00000 0 -21776710.923 -7893103.048 10743903.410 10 0 60905 12600.00000 0 -20304861.769 -7620781.751 13475709.411 10 0 60905 13500.00000 0 -18497422.352 -7448988.514 15946528.326 10 0 60905 14400.00000 0 -16397763.596 -7421577.119 18108506.952 10 0 60905 15300.00000 0 -14058852.922 -7573882.878 19919753.917 10 0 60905 16200.00000 0 -11541233.134 -7931060.094 21345144.520 10 0 60905 17100.00000 0 -8910698.985 -8506857.504 22356997.389 10 0 60905 18000.00000 0 -6235766.516 -9302883.580 22935610.447 10 0 60905 18900.00000 0 -3585038.691 -10308393.368 23069646.191 10 0 60905 19800.00000 0 -1024575.107 -11500607.120 22756358.802 10 0 60905 20700.00000 0 1384626.398 -12845549.020 22001658.272 10 0 60905 21600.00000 0 3588932.846 -14299372.771 20820009.514 10 0 60905 22500.00000 0 5544069.084 -15810120.496 19234167.280 10 0 60905 23400.00000 0 7216718.173 -17319843.080 17274750.636 10 0 60905 24300.00000 0 8585662.725 -18766994.622 14979663.786 10 0 60905 25200.00000 0 9642419.508 -20089001.612 12393372.988 10 0 60905 26100.00000 0 10391340.580 -21224899.458 9566052.425 10 0 60905 27000.00000 0 10849176.501 -22117925.430 6552614.631 10 0 60905 27900.00000 0 11044119.929 -22717958.233 3411643.862 10 0 60905 28800.00000 0 11014370.003 -22983700.285 204253.140 10 0 60905 29700.00000 0 10806278.537 -22884509.174 -3007112.306 10 0 60905 30600.00000 0 10472157.161 -22401799.386 -6159901.057 10 0 60905 31500.00000 0 10067839.303 -21529953.493 -9192685.841 10 0 60905 32400.00000 0 9650101.616 -20276702.877 -12046372.860 10 0 60905 33300.00000 0 9274055.639 -18662960.761 -14665365.150 10 0 60905 34200.00000 0 8990621.704 -16722113.799 -16998655.988 10 0 60905 35100.00000 0 8844193.576 -14498801.638 -19000830.038 10 0 60905 36000.00000 0 8870593.840 -12047235.674 -20632952.062 10 0 60905 36900.00000 0 9095407.449 -9429127.783 -21863325.560 10 0 60905 37800.00000 0 9532764.370 -6711316.116 -22668106.677 10 0 60905 38700.00000 0 10184622.927 -3963187.580 -23031761.854 10 0 60905 39600.00000 0 11040583.911 -1254004.847 -22947360.981 10 0 60905 40500.00000 0 12078242.939 1349750.697 -22416701.219 10 0 60905 41400.00000 0 13264065.714 3786909.806 -21450260.003 10 0 60905 42300.00000 0 14554748.787 6003915.419 -20066979.033 10 0 60905 43200.00000 0 15899008.062 7956797.395 -18293884.323 10 0 60905 44100.00000 0 17239719.446 9612741.338 -16165550.373 10 0 60905 45000.00000 0 18516321.381 10951188.071 -13723419.490 10 0 60905 45900.00000 0 19667378.204 11964420.088 -11014989.938 10 0 60905 46800.00000 0 20633196.704 12657612.818 -8092888.977 10 0 60905 47700.00000 0 21358386.167 13048350.833 -5013849.055 10 0 60905 48600.00000 0 21794254.730 13165631.405 -1837607.119 10 0 60905 49500.00000 0 21900941.840 13048399.122 1374251.619 10 0 60905 50400.00000 0 21649197.755 12743674.591 4559483.115 10 0 60905 51300.00000 0 21021735.829 12304357.001 7656384.321 10 0 60905 52200.00000 0 20014101.162 11786793.627 10604980.587 10 0 60905 53100.00000 0 18635019.337 11248218.788 13348178.147 10 0 60905 54000.00000 0 16906210.478 10744169.906 15832860.111 10 0 60905 54900.00000 0 14861675.910 10325989.014 18010905.587 10 0 60905 55800.00000 0 12546486.399 10038514.285 19840113.083 10 0 60905 56700.00000 0 10015121.325 9918058.173 21285011.263 10 0 60905 57600.00000 0 7329426.457 9990756.737 22317542.184 10 0 60905 58500.00000 0 4556273.608 10271359.457 22917604.398 10 0 60905 59400.00000 0 1765017.600 10762510.673 23073445.803 10 0 60905 60300.00000 0 -975145.691 11454553.509 22781898.612 10 0 60905 61200.00000 0 -3597812.190 12325865.728 22048451.504 10 0 60905 62100.00000 0 -6041885.482 13343714.870 20887156.810 10 0 60905 63000.00000 0 -8253872.316 14465598.530 19320373.385 10 0 60905 63900.00000 0 -10189862.957 15641015.200 17378348.798 10 0 60905 64800.00000 0 -11817114.308 16813592.894 15098647.468 10 0 60905 65700.00000 0 -13115169.800 17923487.290 12525434.373 10 0 60905 66600.00000 0 -14076469.035 18909949.239 9708626.974 10 0 60905 67500.00000 0 -14706421.360 19713953.677 6702930.907 10 0 60905 68400.00000 0 -15022940.066 20280778.708 3566777.606 10 0 60905 69300.00000 0 -15055456.710 20562425.063 361184.559 10 0 60905 70200.00000 0 -14843457.317 20519772.372 -2851439.232 10 0 60905 71100.00000 0 -14434602.792 20124379.495 -6008518.442 10 0 60905 72000.00000 0 -13882513.879 19359851.046 -9048542.184 10 0 60905 72900.00000 0 -13244315.549 18222710.684 -11912274.986 10 0 60905 73800.00000 0 -12578046.147 16722742.804 -14543922.995 10 0 60905 74700.00000 0 -11940042.437 14882787.032 -16892231.374 10 0 60905 75600.00000 0 -11382412.617 12737993.380 -18911490.459 10 0 60905 76500.00000 0 -10950705.394 10334568.937 -20562430.418 10 0 60905 77400.00000 0 -10681874.554 7728068.594 -21812986.622 10 0 60905 78300.00000 0 -10602625.520 4981301.528 -22638920.911 10 0 60905 79200.00000 0 -10728213.789 2161941.198 -23024287.074 10 0 60905 80100.00000 0 -11061745.637 -660061.146 -22961732.136 10 0 60905 81000.00000 0 -11594010.020 -3415151.552 -22452628.449 10 0 60905 81900.00000 0 -12303847.938 -6036825.914 -21507034.937 10 0 60905 82800.00000 0 -13159042.797 -8464150.048 -20143489.175 10 0 60905 83700.00000 0 -14117693.423 -10644043.435 -18388635.198 10 0 60905 84600.00000 0 -15130011.121 -12533232.893 -16276694.979 10 0 60905 85500.00000 0 -16140464.510 -14099796.467 -13848794.486 10 0 60906 0.00000 0 -17090181.341 -15324235.057 -11152158.086 10 0 60906 900.00000 0 -17919506.506 -16200029.791 -8239185.804 10 0 60906 1800.00000 0 -18570607.278 -16733662.470 -5166435.238 10 0 60906 2700.00000 0 -18990018.025 -16944102.547 -1993523.199 10 0 60906 3600.00000 0 -19131016.315 -16861782.351 1218028.080 10 0 60906 4500.00000 0 -18955731.343 -16527105.929 4405979.263 10 0 60906 5400.00000 0 -18436896.308 -15988555.236 7508573.727 10 0 60906 6300.00000 0 -17559171.358 -15300474.091 10465726.071 10 0 60906 7200.00000 0 -16319981.697 -14520623.454 13220176.772 10 0 60906 8100.00000 0 -14729835.507 -13707610.780 15718591.366 10 0 60906 9000.00000 0 -12812107.897 -12918301.147 17912583.737 10 0 60906 9900.00000 0 -10602299.059 -12205318.381 19759644.566 10 0 60906 10800.00000 0 -8146796.369 -11614740.454 21223957.921 10 0 60906 11700.00000 0 -5501190.460 -11184085.263 22277091.028 10 0 60906 12600.00000 0 -2728213.564 -10940670.858 22898544.476 10 0 60906 13500.00000 0 104616.162 -10900418.751 23076152.610 10 0 60906 14400.00000 0 2927548.491 -11067150.705 22806326.373 10 0 60906 15300.00000 0 5671248.997 -11432409.103 22094133.503 10 0 60906 16200.00000 0 8269432.703 -11975809.417 20953213.793 10 0 60906 17100.00000 0 10661375.454 -12665911.270 19405529.934 10 0 60906 18000.00000 0 12794199.491 -13461572.891 17480957.416 10 0 60906 18900.00000 0 14624838.633 -14313733.463 15216719.958 10 0 60906 19800.00000 0 16121601.231 -15167549.527 12656679.967 10 0 60906 20700.00000 0 17265265.384 -15964796.325 9850496.521 10 0 60906 21600.00000 0 18049660.243 -16646433.148 6852666.284 10 0 60906 22500.00000 0 18481708.563 -17155224.226 3721465.436 10 0 60906 23400.00000 0 18580928.428 -17438303.664 517813.158 10 0 60906 24300.00000 0 18378415.035 -17449574.768 -2695920.778 10 0 60906 25200.00000 0 17915345.719 -17151840.665 -5857140.297 10 0 60906 26100.00000 0 17241071.929 -16518574.293 -8904254.108 10 0 60906 27000.00000 0 16410879.721 -15535251.041 -11777888.237 10 0 60906 27900.00000 0 15483514.649 -14200186.005 -14422055.018 10 0 60906 28800.00000 0 14518577.042 -12524838.997 -16785254.395 10 0 60906 29700.00000 0 13573899.173 -10533573.322 -18821485.043 10 0 60906 30600.00000 0 12703016.291 -8262877.636 -20491144.914 10 0 60906 31500.00000 0 11952839.301 -5760083.172 -21761803.276 10 0 60906 32400.00000 0 11361627.794 -3081629.942 -22608829.284 10 0 60906 33300.00000 0 10957349.033 -290954.487 -23015865.255 10 0 60906 34200.00000 0 10756491.699 2543912.443 -22975136.059 10 0 60906 35100.00000 0 10763383.627 5352938.035 -22487589.484 10 0 60906 36000.00000 0 10970041.251 8066761.519 -21562865.746 10 0 60906 36900.00000 0 11356555.850 10619339.204 -20219097.673 10 0 60906 37800.00000 0 11891999.072 12950451.082 -18482546.301 10 0 60906 38700.00000 0 12535808.399 15007965.710 -16387079.691 10 0 60906 39600.00000 0 13239593.102 16749770.352 -13973505.718 10 0 60906 40500.00000 0 13949283.803 18145287.657 -11288772.275 10 0 60906 41400.00000 0 14607534.450 19176517.449 -8385050.718 10 0 60906 42300.00000 0 15156275.181 19838562.102 -5318720.660 10 0 60906 43200.00000 0 15539308.367 20139615.547 -2149275.878 10 0 60906 44100.00000 0 15704838.581 20100418.270 1061827.415 10 0 60906 45000.00000 0 15607830.109 19753202.790 4252357.681 10 0 60906 45900.00000 0 15212093.034 19140175.230 7360507.782 10 0 60906 46800.00000 0 14492010.366 18311597.647 10326084.497 10 0 60906 47700.00000 0 13433833.684 17323552.180 13091665.284 10 0 60906 48600.00000 0 12036492.803 16235480.987 15603700.628 10 0 60906 49500.00000 0 10311885.015 15107604.965 17813541.446 10 0 60906 50400.00000 0 8284631.055 13998329.010 19678372.587 10 0 60906 51300.00000 0 5991306.738 12961741.868 21162035.234 10 0 60906 52200.00000 0 3479180.787 12045314.568 22235723.184 10 0 60906 53100.00000 0 804509.592 11287893.120 22878540.136 10 0 60906 54000.00000 0 -1969542.253 10718069.026 23077907.589 10 0 60906 54900.00000 0 -4775271.339 10352995.565 22829815.509 10 0 60906 55800.00000 0 -7542998.418 10197699.565 22138910.544 10 0 60906 56700.00000 0 -10203720.397 10244917.950 21018419.324 10 0 60906 57600.00000 0 -12691742.757 10475466.698 19489907.273 10 0 60906 58500.00000 0 -14947184.062 10859127.745 17582876.235 10 0 60906 59400.00000 0 -16918248.989 11356017.652 15334207.260 10 0 60906 60300.00000 0 -18563175.369 11918381.486 12787457.876 10 0 60906 61200.00000 0 -19851773.721 12492737.132 9992026.226 10 0 60906 62100.00000 0 -20766494.439 13022279.992 7002197.302 10 0 60906 63000.00000 0 -21302977.297 13449446.478 3876089.247 10 0 60906 63900.00000 0 -21470059.607 13718527.296 674520.150 10 0 60906 64800.00000 0 -21289242.287 13778218.925 -2540182.221 10 0 60906 65700.00000 0 -20793636.226 13584003.770 -5705403.776 10 0 60906 66600.00000 0 -20026433.609 13100256.434 -8759475.478 10 0 60906 67500.00000 0 -19038969.381 12301985.087 -11642887.426 10 0 60906 68400.00000 0 -17888455.638 11176132.350 -14299460.560 10 0 60906 69300.00000 0 -16635485.820 9722379.063 -16677451.822 10 0 60906 70200.00000 0 -15341415.344 7953415.549 -18730570.178 10 0 60906 71100.00000 0 -14065730.382 5894667.901 -20418882.981 10 0 60906 72000.00000 0 -12863516.751 3583490.018 -21709594.643 10 0 60906 72900.00000 0 -11783136.146 1067854.931 -22577682.490 10 0 60906 73800.00000 0 -10864207.760 -1595399.959 -23006377.815 10 0 60906 74700.00000 0 -10135979.899 -4342700.363 -22987483.379 10 0 60906 75600.00000 0 -9616159.335 -7106146.428 -22521522.056 10 0 60906 76500.00000 0 -9310246.431 -9816107.440 -21617714.625 10 0 60906 77400.00000 0 -9211402.565 -12403891.964 -20293788.086 10 0 60906 78300.00000 0 -9300853.824 -14804382.700 -18575619.082 10 0 60906 79200.00000 0 -9548812.336 -16958527.085 -16496720.110 10 0 60906 80100.00000 0 -9915874.944 -18815580.913 -14097579.110 10 0 60906 81000.00000 0 -10354839.009 -20335012.802 -11424865.768 10 0 60906 81900.00000 0 -10812857.756 -21487991.628 -8530520.256 10 0 60906 82800.00000 0 -11233843.583 -22258396.513 -5470742.378 10 0 60906 83700.00000 0 -11561017.533 -22643308.956 -2304900.837 10 0 60906 84600.00000 0 -11739497.246 -22652968.235 905616.196 10 0 60906 85500.00000 0 -11718814.296 -22310193.554 4098587.003 10 0 60907 0.00000 0 -11455255.011 -21649298.579 7212155.695 10 0 60907 900.00000 0 -10913926.165 -20714544.444 10186023.861 10 0 60907 1800.00000 0 -10070459.145 -19558197.724 12962607.756 10 0 60907 2700.00000 0 -8912280.441 -18238273.788 15488144.894 10 0 60907 3600.00000 0 -7439395.075 -16816060.798 17713725.270 10 0 60907 4500.00000 0 -5664649.357 -15353527.242 19596229.823 10 0 60907 5400.00000 0 -3613460.928 -13910720.820 21099158.615 10 0 60907 6300.00000 0 -1323025.869 -12543266.609 22193333.561 10 0 60907 7200.00000 0 1158965.854 -11300068.182 22857462.761 10 0 60907 8100.00000 0 3776055.181 -10221306.983 23078555.887 10 0 60907 9000.00000 0 6465109.497 -9336822.933 22852182.672 10 0 60907 9900.00000 0 9158703.971 -8664943.681 22182569.126 10 0 60907 10800.00000 0 11787691.819 -8211811.450 21082528.900 10 0 60907 11700.00000 0 14283858.419 -7971235.998 19573230.057 10 0 60907 12600.00000 0 16582550.204 -7925080.453 17683800.407 10 0 60907 13500.00000 0 18625169.761 -8044164.557 15450777.625 10 0 60907 14400.00000 0 20361433.456 -8289648.158 12917413.304 10 0 60907 15300.00000 0 21751297.165 -8614837.326 10132843.202 10 0 60907 16200.00000 0 22766469.075 -8967337.345 7151138.777 10 0 60907 17100.00000 0 23391445.427 -9291461.649 4030257.856 10 0 60907 18000.00000 0 23624024.861 -9530794.410 830914.772 10 0 60907 18900.00000 0 23475279.072 -9630797.370 -2384607.690 10 0 60907 19800.00000 0 22968980.473 -9541349.209 -5553680.605 10 0 60907 20700.00000 0 22140510.865 -9219108.153 -8614560.479 10 0 60907 21600.00000 0 21035297.365 -8629595.906 -11507604.742 10 0 60907 22500.00000 0 19706842.186 -7748912.731 -14176446.091 10 0 60907 23400.00000 0 18214430.304 -6565009.317 -16569101.417 10 0 60907 24300.00000 0 16620612.772 -5078460.115 -18638992.673 10 0 60907 25200.00000 0 14988572.854 -3302704.175 -20345859.016 10 0 60907 26100.00000 0 13379486.884 -1263742.415 -21656542.063 10 0 60907 27000.00000 0 11849991.602 1000696.596 -22545628.993 10 0 60907 27900.00000 0 10449864.681 3442487.713 -22995941.333 10 0 60907 28800.00000 0 9220015.741 6004881.518 -22998860.551 10 0 60907 29700.00000 0 8190871.461 8624643.778 -22554484.955 10 0 60907 30600.00000 0 7381221.428 11234472.770 -21671615.765 10 0 60907 31500.00000 0 6797571.607 13765593.707 -20367573.572 10 0 60907 32400.00000 0 6434030.774 16150422.354 -18667849.612 10 0 60907 33300.00000 0 6272732.733 18325187.370 -16605599.370 10 0 60907 34200.00000 0 6284774.652 20232402.714 -14220989.021 10 0 60907 35100.00000 0 6431630.275 21823088.064 -11560407.852 10 0 60907 36000.00000 0 6666976.968 23058645.815 -8675562.324 10 0 60907 36900.00000 0 6938858.433 23912317.621 -5622469.624 10 0 60907 37800.00000 0 7192091.017 24370161.170 -2460370.358 10 0 60907 38700.00000 0 7370811.633 24431507.821 749418.514 10 0 60907 39600.00000 0 7421059.574 24108883.370 3944688.308 10 0 60907 40500.00000 0 7293283.315 23427396.569 7063538.097 10 0 60907 41400.00000 0 6944666.778 22423621.938 10045566.197 10 0 60907 42300.00000 0 6341177.168 21144024.357 12833031.060 10 0 60907 43200.00000 0 5459248.280 19642991.659 15371959.820 10 0 60907 44100.00000 0 4287028.305 17980557.445 17613183.863 10 0 60907 45000.00000 0 2825139.340 16219908.919 19513282.235 10 0 60907 45900.00000 0 1086915.845 14424783.131 21035415.580 10 0 60907 46800.00000 0 -901889.158 12656859.416 22150035.314 10 0 60907 47700.00000 0 -3103919.581 10973255.814 22835454.962 10 0 60907 48600.00000 0 -5471521.396 9424232.899 23078273.007 10 0 60907 49500.00000 0 -7948485.294 8051199.910 22873639.163 10 0 60907 50400.00000 0 -10472156.557 6885105.710 22225358.557 10 0 60907 51300.00000 0 -12975826.580 5945281.379 21145831.126 10 0 60907 52200.00000 0 -15391308.490 5238782.721 19655826.327 10 0 60907 53100.00000 0 -17651591.169 4760260.401 17784096.209 10 0 60907 54000.00000 0 -19693462.184 4492363.588 15566832.889 10 0 60907 54900.00000 0 -21459990.758 4406660.651 13046979.463 10 0 60907 55800.00000 0 -22902766.998 4465038.690 10273406.446 10 0 60907 56700.00000 0 -23983803.239 4621523.261 7299968.708 10 0 60907 57600.00000 0 -24677016.988 4824441.515 4184460.616 10 0 60907 58500.00000 0 -24969232.188 5018836.964 987489.584 10 0 60907 59400.00000 0 -24860655.699 5149032.901 -2228709.696 10 0 60907 60300.00000 0 -24364808.055 5161234.709 -5401496.485 10 0 60907 61200.00000 0 -23507910.853 5006059.204 -8469055.726 10 0 60907 62100.00000 0 -22327756.387 4640882.059 -11371614.924 10 0 60907 63000.00000 0 -20872107.391 4031901.947 -14052621.064 10 0 60907 63900.00000 0 -19196694.931 3155832.159 -16459853.261 10 0 60907 64800.00000 0 -17362899.617 2001146.491 -18546448.379 10 0 60907 65700.00000 0 -15435214.734 568825.337 -20271818.883 10 0 60907 66600.00000 0 -13478598.934 -1127430.560 -21602444.612 10 0 60907 67500.00000 0 -11555830.433 -3061528.466 -22512523.081 10 0 60907 68400.00000 0 -9724974.165 -5195840.823 -22984466.004 10 0 60907 69300.00000 0 -8037068.094 -7482555.459 -23009232.983 10 0 60907 70200.00000 0 -6534125.071 -9865462.378 -22586496.710 10 0 60907 71100.00000 0 -5247532.886 -12282102.402 -21724637.380 10 0 60907 72000.00000 0 -4196918.074 -14666187.863 -20440567.356 10 0 60907 72900.00000 0 -3389519.178 -16950194.411 -18759390.369 10 0 60907 73800.00000 0 -2820093.657 -19068016.043 -16713902.620 10 0 60907 74700.00000 0 -2471360.180 -20957572.974 -14343946.127 10 0 60907 75600.00000 0 -2314955.574 -22563264.220 -11695627.365 10 0 60907 76500.00000 0 -2312864.271 -23838163.346 -8820416.713 10 0 60907 77400.00000 0 -2419258.425 -24745866.715 -5774146.473 10 0 60907 78300.00000 0 -2582669.896 -25261918.138 -2615927.010 10 0 60907 79200.00000 0 -2748401.620 -25374751.606 592997.922 10 0 60907 80100.00000 0 -2861076.104 -25086113.831 3790434.547 10 0 60907 81000.00000 0 -2867213.340 -24410950.006 6914438.402 10 0 60907 81900.00000 0 -2717729.397 -23376758.466 9904506.778 10 0 60907 82800.00000 0 -2370250.497 -22022441.821 12702741.672 10 0 60907 83700.00000 0 -1791145.249 -20396702.936 15254961.399 10 0 60907 84600.00000 0 -957189.537 -18556052.667 17511740.201 10 0 60907 85500.00000 0 143206.148 -16562512.175 19429356.581 99